Race Coverage Navigation

TS # 20 / Trinidad, CO  2019

 


TS STATS
TS Distance 65.41 
Total Distance 1201 
Miles To Go 1869.28 
TS Climbing 1151 
Total Climbing
TS  Elevation
TS  Net Elevation 1818 
Map Filename Open Map 
Directions Filename  
Latitude 37.17 
Longitude -104.51 
Google Map  TimeStation Map 


TS Arrival Data
Arr Ord  #/Name Arrival DT TS Dst Avg This TS Avg Overall
 1 377 - Christoph Strasser  06/14/2019 14:06 65.41  11.97  17.29 
 2 279 - Marko Baloh  06/14/2019 23:58 65.41  13.67  15.14 
 3 609 - Jakob Olsen  06/15/2019 2:47 65.41  13.44  14.57 
 4 288 - Dave Haase  06/15/2019 4:52 65.41  9.23  14.26 
 5 617 - SOLO.kiwi (Craig Harper)  06/15/2019 7:50 65.41  8.72  13.71 
 6 529 - Isa Pulver  06/15/2019 8:04 65.41  8.66  13.65 
 7 612 - Markus K. Brandl  06/15/2019 11:24 65.41  11.97  13.18 
 8 329 - Peter Oyler  06/15/2019 13:32 65.41  11.89  12.92 
 9 622 - Thomas Odom-Team Kyle Pease Foundation  06/15/2019 15:00 65.41  12.5  12.66 
 10 623 - Ultra Paka Racing Team (Daniel Polman)  06/15/2019 16:14 65.41  13.67  12.5 
 11 416 - Leah Goldstein  06/15/2019 16:35 65.41  12.46  12.45 
 12 615 - Philipp Amhof  06/15/2019 20:19 65.41  12.46  12 
 13 367 - Daniela Genovesi  06/15/2019 20:42 65.41  13.21  11.94 
 14 568 - Alexandra Meixner  06/15/2019 21:42 65.41  9.62  11.82 
 15 604 - Chieko Ozawa  06/15/2019 22:10 65.41  9.5  11.76 
 16 603 - Alan Bradley  06/15/2019 23:47 65.41  6.13  11.62 
 17 559 - Team Martin RAAM 2019 (Martin Bergmeister)  06/16/2019 0:07 65.41  13.72  11.58 
 18 411 - Geoff Brunner  06/16/2019 1:33 65.41  11.68  11.44 
 19 611 - Marcelo Soares " MIXIRICA "  06/16/2019 3:48 65.41  12.38  11.17 
 20 442 - Joe Barr  06/16/2019 4:17 65.41  4.48  11.14 
 21 510 - John C. Tarlton  06/16/2019 5:59 65.41  10.41  10.97 
 22 610 - Kabir Rachure  06/16/2019 9:36 65.41  5.81  10.6 
 23 399 - Valerio Zamboni  06/16/2019 11:36 65.41  8.14  10.44 
 24 539 - Kari Rouvinen  06/16/2019 14:34 65.41  6.27  10.17 
 25 424 - Team i RON man Veterans supporting Veterans  06/16/2019 15:44 65.41  9.39  10.08 
 26 527 - TALABARDON (Herve Talabardon)  06/16/2019 16:16 65.41  10.72  10.03 
 27 608 - Elin Starup  06/16/2019 17:56 65.41  7.71  9.85 
 28 618 - GREGORY ROBINSON  06/16/2019 19:06 65.41  11.72  9.77 
 29 607 - Sabine Bird (Team Bean)  06/16/2019 23:33 65.41  8.16  9.42 
 30 161 - Seana Hogan  06/17/2019 0:45 65.41  12.62  9.34 
 31 605 - Christian Echavarria  06/17/2019 1:14 65.41  9.94  9.32 
 32 T411 - team alpha - tischlerei groemmer  06/17/2019 21:08 65.41  24.23  22.33 
 33 T800 - Backstedt Racing Project 14  06/17/2019 22:02 65.41  20.99  22.02 
 34 T401 - Data Techniques powered by Networks Centre  06/18/2019 0:15 65.41  18.96  21.05 
 35 T404 - Gentlemen of speed  06/18/2019 0:52 65.41  19.92  20.84 
 36 T201 - EAT WELL  06/18/2019 4:11 65.41  16.99  19.63 
 37 T805 - Team Oceanside  06/18/2019 4:41 65.41  18.6  19.65 
 38 T407 - Julian Becker   06/18/2019 5:42 65.41  16.92  19.24 
 39 T807 - Team ZOE International  06/18/2019 5:45 65.41  19.14  19.32 
 40 T412 - Team Aspect  06/18/2019 7:12 65.41  15.33  18.81 
 41 T802 - Scorchers  06/18/2019 7:33 65.41  15.89  18.76 
 42 T416 - Team Rotary Raams Polio  06/18/2019 7:42 65.41  17.37  18.69 
 43 T804 - Team FSHD Skyland Trail  06/18/2019 8:38 65.41  16.49  18.45 
 44 T408 - Radeln-fuer-Kinder (Cycling-for-Kids)  06/18/2019 8:42 65.41  15.45  18.36 
 45 T400 - Cantastic4  06/18/2019 8:49 65.41  17.6  18.29 
 46 T406 - Operation Walk Midwest  06/18/2019 9:04 65.41  16.99  18.25 
 47 T808 - Antonia's Friends 2019  06/18/2019 9:21 65.41  15.76  18.27 
 48 T418 - The Opportunists  06/18/2019 11:29 65.41  15.45  17.66 
 49 T410 - Soap-Aid  06/18/2019 13:15 65.41  19.92  17.18 
 50 T414 - Brazil Nuts  06/18/2019 13:29 65.41  16.08  17.14 
 51 T403 - EKJ Denmark  06/18/2019 13:41 65.41  16.49  17.04 
 52 T202 - Integra Medical - BAA Racing  06/18/2019 14:06 65.41  14.12  16.9 
 53 T803 - Team EndoPark  06/18/2019 14:41 65.41  15.33  16.88 
 54 T405 - High Rollers  06/18/2019 14:59 65.41  22.17  16.74 
 55 T206 - Project Linear Acceleration  06/18/2019 15:23 65.41  16.42  16.62 
 56 T415 - TEAM FIRE VELO 935  06/18/2019 16:15 65.41  15.45  16.49 
 57 T204 - Lucan CRC  06/18/2019 16:41 65.41  16.08  16.31 
 58 T413 - TEAM BRASIL - SKIPPER  06/18/2019 18:24 65.41  16.63  16.01 
 59 T806 - Team SuperMarrow  06/18/2019 20:05 65.41  14.87  15.7 
 60 T402 - EA/WFP RAAM Team  06/18/2019 20:17 65.41  12.42  15.58 
 61 T801 - Mind Over Matter  06/18/2019 20:50 65.41  15.09  15.53 
 62 T417 - Team4RAAM 2019 powered by TGW Living Logistics  06/18/2019 22:32 65.41  15.7  15.19 
 63 T200 - AIR RELAX GoPro TEAM BRASIL  06/18/2019 23:47 65.41  14.64  14.87 
 64 T207 - Team Life Time  06/19/2019 0:57 65.41  12.78  14.68 
 65 T409 - Serpentine Golden Girls  06/19/2019 3:14 65.41  13.63  14.31 
 66 T208 - Team Machine  06/19/2019 4:38 65.41  6.93  14.05 
 67 T203 - JPsDuo  06/19/2019 6:24 65.41  11.51  13.75 
 68 T210 - Bike Wine Team  06/19/2019 9:44 65.41  14.12  13.26 
 69 T205 - Prevent Breast Cancer powered by Endomag  06/19/2019 11:37 65.41  11.25  12.98